[Iaude] MPEC V176: 2023 VU5 [a=1.12,e=0.27,i=15.6,H=21.6]

mpec at marsden.cfa.harvard.edu mpec at marsden.cfa.harvard.edu
Fri Nov 10 14:23:38 EST 2023


M.P.E.C. 2023-V176                            Issued 2023 November 10, 19:22 UT

     The Minor Planet Electronic Circulars contain information on unusual
         minor planets, routine data on comets and natural satellites,
         and occasional editorial announcements.  They are published
    on behalf of Division F of the International Astronomical Union by the
          Minor Planet Center, Smithsonian Astrophysical Observatory,
                          Cambridge, MA 02138, U.S.A.
			  
             Prepared using the Tamkin Foundation Computer Network

                              MPC at CFA.HARVARD.EDU
            URL https://www.minorplanetcenter.net/    ISSN 1523-6714

                                    2023 VU5                                    


Observations:
     K23V05U  C2023 10 26.46304605 23 24.075+24 40 24.96         22.44GVEV176F51
     K23V05U  C2023 10 26.47388005 23 24.023+24 40 10.85         22.80GVEV176F51
     K23V05U  C2023 10 26.48466605 23 23.961+24 39 56.22         21.79GVEV176F51
     K23V05U  C2023 10 26.49540105 23 23.912+24 39 42.64         21.32GVEV176F51
     K23V05U* C2023 11 08.61419005 17 03.623+18 28 16.62         21.64wXEV176F51
     K23V05U  C2023 11 08.62128505 17 03.134+18 28 01.79         21.44wXEV176F51
     K23V05U  C2023 11 08.62837505 17 02.657+18 27 46.81         21.34wXEV176F51
     K23V05U  C2023 11 08.63544405 17 02.166+18 27 31.79         21.56wXEV176F51
     K23V05U KC2023 11 09.35404505 16 17.843+18 02 06.94         21.15GVEV176I52
     K23V05U KC2023 11 09.35697505 16 17.674+18 02 00.49         21.08GVEV176I52
     K23V05U KC2023 11 09.35988205 16 17.418+18 01 54.66         21.26GVEV176I52
     K23V05U KC2023 11 09.36279005 16 17.206+18 01 47.78         21.10GVEV176I52
     K23V05U KC2023 11 10.35797205 15 09.572+17 25 43.39         20.74GVEV176I52
     K23V05U KC2023 11 10.36081905 15 09.400+17 25 38.24         20.59GVEV176I52
     K23V05U KC2023 11 10.36367005 15 09.162+17 25 31.08         21.03GVEV176I52
     K23V05U KC2023 11 10.36652005 15 08.899+17 25 24.82         21.12GVEV176I52

Observer details:
F51 Pan-STARRS 1, Haleakala.  Observers J. Bulger, T. Lowe, P. Minguez, A.
    Schultz, I. Smith.  Measurers K. Chambers, T. de Boer, J. Fairlamb, H.
    Gao, M. Huber, C.-C. Lin, E. Magnier, Y. Ramanjooloo, R. Wainscoat, R.
    Weryk.  1.8-m Ritchey-Chretien + CCD.
I52 Steward Observatory, Mt. Lemmon Station.  Observer H. Groeller.  Measurers
    E. C. Beshore, D. Fay, J. B. Fazekas, D. C. Fuls, A. R. Gibbs, A. D.
    Grauer, H. Groeller, J. K. Hogan, R. A. Kowalski, S. M. Larson, G. J.
    Leonard, D. Rankin, R. L. Seaman, F. C. Shelly, K. W. Wierzchos.  1.0-m
    prime focus + CCD.

Orbital elements:
2023 VU5                                                 Earth MOID = 0.1643 AU
Epoch 2023 Sept. 13.0 TT = JDT 2460200.5                MPC                     
M 185.43909              (2000.0)            P               Q                  
n   0.83386099     Peri.  332.57219     -0.90808158     +0.36417444             
a   1.1179103      Node   230.33810     -0.31786040     -0.92084536             
e   0.2714606      Incl.   15.58266     -0.27267674     -0.13935853             
P   1.18           H   21.65          G   0.15           U   7                  
Residuals in seconds of arc
231026 F51  0.0   0.1-    231108 F51  0.1+  0.1+    231110 I52  0.3-  0.4-
231026 F51  0.0   0.1+    231108 F51  0.1+  0.1+    231110 I52  0.4+  0.7+
231026 F51  0.1-  0.3-    231109 I52  0.3-  0.1+    231110 I52  0.3+  0.1-
231026 F51  0.1+  0.4+    231109 I52  0.4+  0.1-    231110 I52  0.3-  0.1-
231108 F51  0.0   0.1-    231109 I52  0.2-  0.2+
231108 F51  0.0   0.1+    231109 I52  0.2-  0.4-

Ephemeris:
2023 VU5                 a,e,i = 1.12, 0.27, 16                  q = 0.8144
Date    TT    R. A. (2000) Decl.     Delta      r    Elong.  Phase     V
2023 10 11    05 15 36.9 +29 05 17   0.6276  1.3977   116.7    39.7    22.9
...
2023 10 26    05 23 22.3 +24 50 43   0.5015  1.3728   130.3    33.5    22.2
...
2023 11 03    05 21 28.0 +21 27 29   0.4411  1.3560   138.9    28.7    21.8
...
2023 11 09    05 16 40.4 +18 14 48   0.4007  1.3418   146.0    24.4    21.4
2023 11 10    05 15 34.3 +17 38 57   0.3944  1.3393   147.2    23.6    21.4
2023 11 11    05 14 23.0 +17 02 00   0.3884  1.3367   148.4    22.8    21.3
...
2023 11 17    05 05 24.2 +12 56 59   0.3554  1.3207   155.6    18.0    20.9
...
2023 11 25    04 48 51.4 +06 33 27   0.3225  1.2973   161.7    13.9    20.6
...
2023 12 10    04 09 06.1 -06 29 52   0.2985  1.2474   147.7    25.0    20.7

A. U. Tomatic                (C) Copyright 2023 MPC           M.P.E.C. 2023-V176




More information about the Iaude mailing list